TDRS 12

Last updated on Sun Jun 21 2026 00:02:59 GMT+0000 (Coordinated Universal Time)

1 39504U 14004A 26171.38383712 -.00000277 00000+0 00000+0 0 9997 2 39504 3.9809 19.1631 0003091 194.6527 151.8973 1.00265941 44303
UTC large
Height (km)
Speed (km/s)
/
Latitude / Longitude
Inclination (degrees)
Orbital Period (minutes)
Azimuth
Elevation
Range (km)
Doppler Factor

Next 0 passes for location: London (51.5072 / 0.1276)

No passes found over London.
TDRS 12